QPF
0.03 0.04 0.04 0.05 0.07 0.10 0.14 0.14 0.15 0.18 0.19 0.16 0.15 0.17 0.16 0.17 0.16 0.14 0.13 0.12 0.13 0.12 0.13 0.12 0.10 0.07 0.05 0.03 0.02 0.01 0.01 0.00 0.00 0.00 0.01 0.01 0.02 0.03 0.02 0.02 0.01 0.01 0.01
0.04 0.04 0.05 0.06 0.07 0.08 0.09 0.11 0.13 0.12 0.15 0.21 0.21 0.17 0.15 0.17 0.17 0.14 0.14 0.15 0.18 0.16 0.15 0.15 0.13 0.11 0.09 0.07 0.04 0.03 0.01 0.01 0.01 0.01 0.01 0.01 0.02 0.03 0.03 0.03 0.02 0.01 0.01
0.04 0.04 0.05 0.06 0.07 0.05 0.05 0.06 0.07 0.09 0.10 0.11 0.11 0.12 0.15 0.17 0.14 0.13 0.15 0.15 0.18 0.19 0.20 0.22 0.20 0.16 0.13 0.10 0.07 0.05 0.03 0.02 0.01 0.01 0.02 0.01 0.02 0.02 0.02 0.02 0.03 0.02 0.02
0.03 0.03 0.03 0.03 0.02 0.02 0.03 0.03 0.04 0.04 0.05 0.06 0.06 0.07 0.07 0.08 0.10 0.10 0.10 0.16 0.19 0.16 0.17 0.21 0.22 0.18 0.15 0.13 0.13 0.10 0.06 0.04 0.02 0.02 0.02 0.01 0.01 0.01 0.01 0.01 0.02 0.01 0.01
0.01 0.01 0.01 0.01 0.01 0.01 0.02 0.02 0.03 0.03 0.03 0.03 0.03 0.04 0.05 0.04 0.05 0.05 0.05 0.08 0.14 0.14 0.14 0.18 0.20 0.19 0.18 0.18 0.17 0.15 0.13 0.09 0.06 0.03 0.03 0.02 0.02 0.02 0.01 0.01 0.02 0.02 0.02
0.02 0.02 0.02 0.02 0.02 0.01 0.02 0.02 0.03 0.02 0.02 0.02 0.02 0.02 0.03 0.02 0.02 0.03 0.04 0.04 0.06 0.10 0.12 0.13 0.15 0.15 0.18 0.17 0.16 0.16 0.17 0.15 0.11 0.08 0.06 0.04 0.03 0.02 0.02 0.03 0.03 0.04 0.04
0.04 0.05 0.03 0.02 0.02 0.02 0.02 0.03 0.02 0.01 0.02 0.02 0.02 0.01 0.01 0.01 0.01 0.01 0.02 0.03 0.06 0.09 0.12 0.14 0.18 0.22 0.20 0.16 0.17 0.18 0.19 0.19 0.17 0.14 0.11 0.09 0.07 0.04 0.03 0.03 0.02 0.03 0.04
0.08 0.08 0.06 0.03 0.02 0.02 0.02 0.02 0.01 0.01 0.01 0.02 0.01 0.01 0.01 0.00 0.01 0.01 0.02 0.04 0.11 0.12 0.10 0.14 0.21 0.25 0.25 0.22 0.19 0.14 0.17 0.19 0.19 0.17 0.14 0.12 0.09 0.06 0.04 0.04 0.03 0.03 0.03
0.09 0.09 0.07 0.03 0.02 0.01 0.01 0.01 0.00 0.01 0.01 0.01 0.01 0.02 0.01 0.00 0.00 0.01 0.01 0.02 0.05 0.09 0.11 0.11 0.17 0.24 0.21 0.22 0.20 0.16 0.16 0.19 0.19 0.19 0.17 0.14 0.11 0.08 0.07 0.06 0.04 0.03 0.04
0.09 0.07 0.04 0.02 0.01 0.00 0.00 0.00 0.00 0.00 0.00 0.00 0.01 0.01 0.02 0.02 0.02 0.01 0.01 0.01 0.01 0.04 0.07 0.07 0.07 0.14 0.21 0.26 0.21 0.22 0.19 0.16 0.15 0.18 0.19 0.17 0.12 0.08 0.06 0.07 0.09 0.08 0.06
0.07 0.05 0.04 0.02 0.01 0.01 0.01 0.00 0.00 0.00 0.00 0.00 0.00 0.01 0.01 0.02 0.02 0.01 0.01 0.01 0.01 0.01 0.03 0.04 0.05 0.07 0.12 0.21 0.21 0.19 0.17 0.15 0.13 0.12 0.15 0.15 0.13 0.10 0.08 0.08 0.13 0.15 0.14
0.07 0.06 0.04 0.03 0.02 0.02 0.02 0.01 0.01 0.00 0.00 0.00 0.00 0.00 0.00 0.01 0.01 0.01 0.01 0.01 0.01 0.01 0.02 0.03 0.03 0.05 0.07 0.12 0.16 0.18 0.14 0.14 0.13 0.13 0.13 0.13 0.12 0.11 0.10 0.10 0.12 0.15 0.17
0.09 0.07 0.06 0.04 0.04 0.03 0.03 0.02 0.01 0.01 0.00 0.00 0.00 0.00 0.00 0.00 0.01 0.01 0.01 0.01 0.01 0.01 0.01 0.02 0.03 0.04 0.05 0.08 0.14 0.18 0.16 0.13 0.11 0.11 0.11 0.12 0.12 0.10 0.09 0.09 0.11 0.14 0.16
0.10 0.11 0.10 0.09 0.08 0.07 0.06 0.04 0.02 0.01 0.01 0.00 0.00 0.00 0.00 0.00 0.01 0.01 0.01 0.02 0.02 0.01 0.01 0.02 0.03 0.04 0.07 0.08 0.11 0.11 0.10 0.11 0.09 0.09 0.10 0.10 0.09 0.08 0.07 0.06 0.07 0.09 0.12
0.08 0.11 0.12 0.13 0.13 0.12 0.11 0.07 0.04 0.02 0.01 0.00 0.00 0.00 0.00 0.00 0.00 0.01 0.01 0.02 0.03 0.02 0.02 0.03 0.04 0.03 0.07 0.06 0.07 0.06 0.05 0.06 0.07 0.08 0.07 0.07 0.07 0.07 0.06 0.06 0.06 0.08 0.10
0.07 0.08 0.09 0.10 0.11 0.10 0.09 0.09 0.06 0.04 0.03 0.01 0.01 0.00 0.00 0.00 0.00 0.00 0.01 0.01 0.02 0.04 0.04 0.03 0.04 0.05 0.08 0.07 0.07 0.06 0.05 0.07 0.07 0.06 0.05 0.05 0.05 0.05 0.05 0.05 0.06 0.08 0.08
0.05 0.06 0.07 0.08 0.09 0.09 0.08 0.08 0.07 0.06 0.04 0.02 0.01 0.01 0.00 0.00 0.00 0.00 0.01 0.01 0.02 0.04 0.03 0.03 0.04 0.06 0.08 0.07 0.06 0.05 0.05 0.05 0.06 0.05 0.05 0.04 0.03 0.04 0.04 0.05 0.05 0.07 0.08
0.03 0.03 0.04 0.05 0.06 0.07 0.08 0.09 0.07 0.06 0.05 0.04 0.03 0.02 0.01 0.01 0.01 0.00 0.01 0.01 0.03 0.03 0.03 0.03 0.04 0.05 0.05 0.06 0.06 0.06 0.05 0.04 0.04 0.05 0.05 0.05 0.04 0.03 0.04 0.05 0.05 0.05 0.05
0.02 0.02 0.03 0.03 0.04 0.05 0.06 0.07 0.07 0.06 0.06 0.05 0.04 0.04 0.03 0.02 0.01 0.00 0.00 0.01 0.02 0.02 0.04 0.04 0.04 0.05 0.06 0.07 0.07 0.08 0.07 0.06 0.04 0.04 0.04 0.04 0.04 0.03 0.03 0.04 0.04 0.05 0.06
0.01 0.01 0.02 0.02 0.03 0.03 0.05 0.06 0.07 0.08 0.06 0.05 0.04 0.03 0.02 0.01 0.01 0.00 0.00 0.01 0.02 0.02 0.03 0.04 0.05 0.06 0.07 0.07 0.08 0.10 0.11 0.09 0.06 0.04 0.04 0.04 0.04 0.04 0.03 0.03 0.03 0.03 0.04
0.00 0.01 0.01 0.01 0.02 0.03 0.04 0.06 0.07 0.08 0.07 0.06 0.04 0.03 0.02 0.02 0.01 0.01 0.01 0.01 0.02 0.01 0.02 0.03 0.04 0.06 0.08 0.10 0.10 0.10 0.10 0.10 0.09 0.06 0.05 0.03 0.03 0.02 0.03 0.03 0.02 0.02 0.02
0.00 0.00 0.01 0.01 0.01 0.02 0.03 0.05 0.07 0.08 0.09 0.08 0.05 0.03 0.02 0.02 0.01 0.01 0.00 0.01 0.01 0.01 0.02 0.03 0.03 0.05 0.06 0.08 0.09 0.09 0.09 0.08 0.10 0.07 0.05 0.05 0.03 0.03 0.03 0.02 0.02 0.01 0.01
0.00 0.00 0.00 0.00 0.01 0.01 0.02 0.04 0.05 0.07 0.08 0.08 0.07 0.05 0.03 0.01 0.01 0.00 0.00 0.01 0.01 0.01 0.02 0.03 0.03 0.04 0.06 0.07 0.09 0.08 0.07 0.07 0.08 0.07 0.04 0.05 0.04 0.03 0.03 0.03 0.02 0.01 0.01
0.00 0.00 0.00 0.00 0.00 0.01 0.01 0.02 0.04 0.05 0.07 0.08 0.08 0.06 0.04 0.02 0.01 0.01 0.01 0.01 0.01 0.01 0.02 0.03 0.04 0.05 0.07 0.09 0.12 0.11 0.08 0.08 0.09 0.08 0.06 0.06 0.04 0.03 0.03 0.04 0.04 0.02 0.01
0.00 0.00 0.00 0.00 0.00 0.01 0.01 0.02 0.03 0.04 0.07 0.08 0.10 0.09 0.07 0.03 0.02 0.01 0.01 0.01 0.01 0.01 0.03 0.05 0.07 0.08 0.11 0.14 0.12 0.11 0.10 0.09 0.10 0.10 0.07 0.06 0.04 0.03 0.02 0.02 0.02 0.01 0.01
0.00 0.00 0.00 0.00 0.01 0.01 0.01 0.01 0.03 0.04 0.07 0.10 0.11 0.12 0.11 0.06 0.04 0.03 0.01 0.01 0.02 0.02 0.02 0.04 0.06 0.08 0.10 0.12 0.11 0.08 0.08 0.09 0.09 0.10 0.06 0.04 0.04 0.02 0.02 0.02 0.01 0.01 0.01
MSLP
1011.66 1011.64 1011.56 1011.46 1011.39 1011.40 1011.48 1011.63 1011.82 1012.01 1012.15 1012.24 1012.27 1012.25 1012.21 1012.17 1012.15 1012.16 1012.20 1012.26 1012.33 1012.41 1012.49 1012.59 1012.72 1012.91 1013.14 1013.44 1013.78 1014.14 1014.49 1014.84 1015.16 1015.46 1015.75 1016.04 1016.35 1016.67 1017.01 1017.35 1017.68 1017.99 1018.26
1011.34 1011.33 1011.27 1011.20 1011.16 1011.19 1011.28 1011.43 1011.60 1011.76 1011.86 1011.91 1011.90 1011.84 1011.76 1011.69 1011.64 1011.63 1011.66 1011.72 1011.80 1011.89 1012.00 1012.13 1012.29 1012.49 1012.74 1013.02 1013.33 1013.65 1013.96 1014.27 1014.56 1014.84 1015.12 1015.42 1015.75 1016.10 1016.47 1016.85 1017.21 1017.54 1017.84
1011.00 1011.02 1011.00 1010.98 1010.99 1011.06 1011.18 1011.33 1011.48 1011.61 1011.68 1011.68 1011.63 1011.53 1011.41 1011.30 1011.23 1011.19 1011.20 1011.24 1011.31 1011.41 1011.53 1011.68 1011.85 1012.07 1012.31 1012.58 1012.86 1013.14 1013.41 1013.67 1013.92 1014.18 1014.45 1014.74 1015.08 1015.45 1015.84 1016.24 1016.63 1016.99 1017.33
1010.67 1010.73 1010.77 1010.81 1010.89 1011.01 1011.16 1011.33 1011.47 1011.57 1011.60 1011.57 1011.47 1011.34 1011.19 1011.05 1010.94 1010.87 1010.85 1010.86 1010.90 1010.98 1011.09 1011.23 1011.41 1011.61 1011.85 1012.10 1012.36 1012.61 1012.85 1013.07 1013.29 1013.51 1013.76 1014.05 1014.38 1014.75 1015.15 1015.57 1015.98 1016.37 1016.73
1010.37 1010.48 1010.58 1010.70 1010.84 1011.02 1011.20 1011.38 1011.53 1011.61 1011.62 1011.56 1011.44 1011.28 1011.11 1010.95 1010.81 1010.70 1010.63 1010.60 1010.60 1010.63 1010.70 1010.80 1010.95 1011.13 1011.34 1011.57 1011.81 1012.04 1012.26 1012.47 1012.66 1012.87 1013.10 1013.37 1013.68 1014.04 1014.44 1014.86 1015.29 1015.70 1016.09
1010.14 1010.28 1010.43 1010.61 1010.81 1011.04 1011.26 1011.46 1011.60 1011.68 1011.68 1011.61 1011.48 1011.32 1011.15 1010.98 1010.82 1010.68 1010.57 1010.48 1010.41 1010.36 1010.36 1010.40 1010.49 1010.62 1010.80 1011.01 1011.23 1011.45 1011.66 1011.86 1012.05 1012.25 1012.47 1012.72 1013.02 1013.37 1013.75 1014.16 1014.58 1015.01 1015.42
1009.97 1010.12 1010.30 1010.52 1010.77 1011.03 1011.27 1011.48 1011.64 1011.72 1011.72 1011.67 1011.56 1011.43 1011.27 1011.11 1010.95 1010.79 1010.63 1010.47 1010.32 1010.19 1010.09 1010.03 1010.04 1010.11 1010.23 1010.41 1010.61 1010.83 1011.04 1011.25 1011.45 1011.65 1011.87 1012.11 1012.39 1012.71 1013.07 1013.47 1013.88 1014.31 1014.74
1009.86 1010.00 1010.18 1010.41 1010.67 1010.94 1011.20 1011.41 1011.57 1011.67 1011.70 1011.67 1011.61 1011.52 1011.42 1011.29 1011.15 1010.98 1010.78 1010.56 1010.32 1010.09 1009.88 1009.72 1009.62 1009.60 1009.66 1009.79 1009.96 1010.17 1010.39 1010.61 1010.83 1011.05 1011.27 1011.51 1011.77 1012.07 1012.40 1012.77 1013.17 1013.59 1014.02
1009.81 1009.90 1010.05 1010.26 1010.50 1010.75 1011.00 1011.21 1011.37 1011.48 1011.55 1011.57 1011.57 1011.55 1011.51 1011.44 1011.33 1011.17 1010.96 1010.69 1010.38 1010.05 1009.73 1009.45 1009.24 1009.13 1009.10 1009.16 1009.30 1009.49 1009.70 1009.93 1010.17 1010.39 1010.62 1010.86 1011.11 1011.38 1011.69 1012.04 1012.41 1012.82 1013.26
1009.78 1009.81 1009.90 1010.05 1010.25 1010.47 1010.68 1010.87 1011.03 1011.15 1011.25 1011.33 1011.40 1011.45 1011.48 1011.48 1011.42 1011.29 1011.08 1010.79 1010.43 1010.02 1009.61 1009.23 1008.92 1008.70 1008.58 1008.56 1008.64 1008.79 1008.99 1009.21 1009.44 1009.67 1009.90 1010.13 1010.37 1010.63 1010.91 1011.24 1011.60 1012.00 1012.44
1009.78 1009.72 1009.74 1009.82 1009.95 1010.11 1010.28 1010.43 1010.57 1010.70 1010.83 1010.95 1011.08 1011.20 1011.30 1011.37 1011.38 1011.29 1011.10 1010.81 1010.42 1009.98 1009.50 1009.05 1008.64 1008.33 1008.12 1008.02 1008.03 1008.11 1008.26 1008.46 1008.67 1008.88 1009.10 1009.32 1009.55 1009.79 1010.06 1010.37 1010.72 1011.12 1011.57
1009.79 1009.66 1009.60 1009.60 1009.65 1009.74 1009.84 1009.95 1010.06 1010.18 1010.31 1010.46 1010.63 1010.80 1010.97 1011.09 1011.15 1011.12 1010.97 1010.70 1010.33 1009.88 1009.38 1008.88 1008.42 1008.04 1007.75 1007.57 1007.49 1007.51 1007.59 1007.73 1007.90 1008.09 1008.28 1008.48 1008.69 1008.93 1009.19 1009.49 1009.83 1010.23 1010.68
1009.82 1009.62 1009.49 1009.42 1009.39 1009.40 1009.43 1009.48 1009.55 1009.64 1009.76 1009.91 1010.09 1010.28 1010.48 1010.65 1010.75 1010.77 1010.67 1010.45 1010.13 1009.71 1009.23 1008.73 1008.26 1007.83 1007.49 1007.24 1007.09 1007.03 1007.04 1007.11 1007.22 1007.36 1007.52 1007.70 1007.90 1008.11 1008.37 1008.67 1009.01 1009.42 1009.88
1009.86 1009.63 1009.44 1009.30 1009.20 1009.14 1009.10 1009.08 1009.09 1009.13 1009.21 1009.34 1009.50 1009.69 1009.89 1010.07 1010.20 1010.26 1010.22 1010.06 1009.80 1009.45 1009.03 1008.58 1008.13 1007.71 1007.34 1007.06 1006.85 1006.72 1006.67 1006.67 1006.73 1006.82 1006.94 1007.09 1007.27 1007.48 1007.73 1008.02 1008.38 1008.79 1009.26
1009.91 1009.66 1009.44 1009.25 1009.09 1008.96 1008.86 1008.78 1008.72 1008.70 1008.72 1008.79 1008.91 1009.06 1009.23 1009.40 1009.54 1009.63 1009.63 1009.55 1009.37 1009.10 1008.77 1008.40 1008.01 1007.63 1007.29 1007.00 1006.78 1006.62 1006.52 1006.48 1006.49 1006.54 1006.63 1006.76 1006.92 1007.13 1007.37 1007.67 1008.02 1008.44 1008.91
1009.94 1009.68 1009.45 1009.23 1009.03 1008.85 1008.69 1008.54 1008.42 1008.33 1008.28 1008.28 1008.34 1008.43 1008.56 1008.69 1008.82 1008.91 1008.95 1008.92 1008.82 1008.65 1008.42 1008.15 1007.86 1007.56 1007.29 1007.04 1006.84 1006.69 1006.59 1006.54 1006.54 1006.59 1006.67 1006.79 1006.94 1007.14 1007.39 1007.68 1008.03 1008.44 1008.91
1009.88 1009.65 1009.42 1009.19 1008.97 1008.75 1008.53 1008.33 1008.15 1007.99 1007.88 1007.81 1007.79 1007.82 1007.88 1007.97 1008.06 1008.15 1008.20 1008.21 1008.17 1008.08 1007.96 1007.80 1007.62 1007.43 1007.26 1007.11 1006.99 1006.90 1006.85 1006.85 1006.88 1006.94 1007.05 1007.18 1007.35 1007.55 1007.80 1008.09 1008.43 1008.82 1009.27
1009.71 1009.51 1009.29 1009.07 1008.83 1008.58 1008.33 1008.09 1007.85 1007.64 1007.47 1007.34 1007.25 1007.22 1007.22 1007.26 1007.31 1007.36 1007.41 1007.43 1007.43 1007.41 1007.36 1007.30 1007.24 1007.18 1007.13 1007.11 1007.11 1007.14 1007.19 1007.28 1007.40 1007.53 1007.69 1007.87 1008.07 1008.29 1008.54 1008.82 1009.14 1009.51 1009.92
1009.38 1009.21 1009.02 1008.80 1008.56 1008.30 1008.03 1007.75 1007.48 1007.23 1007.01 1006.84 1006.71 1006.62 1006.58 1006.56 1006.57 1006.59 1006.60 1006.62 1006.63 1006.64 1006.65 1006.67 1006.70 1006.76 1006.85 1006.97 1007.12 1007.31 1007.51 1007.74 1007.98 1008.23 1008.48 1008.73 1008.98 1009.24 1009.50 1009.77 1010.07 1010.41 1010.78
1008.87 1008.75 1008.58 1008.38 1008.15 1007.88 1007.59 1007.30 1007.00 1006.73 1006.49 1006.29 1006.14 1006.02 1005.94 1005.89 1005.86 1005.84 1005.82 1005.80 1005.79 1005.80 1005.83 1005.90 1006.01 1006.17 1006.39 1006.66 1006.98 1007.34 1007.72 1008.12 1008.52 1008.91 1009.28 1009.62 1009.94 1010.24 1010.52 1010.80 1011.08 1011.38 1011.71
1008.22 1008.13 1008.00 1007.81 1007.59 1007.32 1007.03 1006.72 1006.42 1006.14 1005.89 1005.69 1005.53 1005.42 1005.33 1005.26 1005.20 1005.14 1005.08 1005.02 1004.98 1004.96 1004.98 1005.06 1005.22 1005.46 1005.79 1006.19 1006.67 1007.20 1007.76 1008.33 1008.90 1009.44 1009.95 1010.40 1010.80 1011.16 1011.48 1011.76 1012.04 1012.32 1012.61
1007.47 1007.42 1007.31 1007.15 1006.94 1006.67 1006.38 1006.07 1005.77 1005.49 1005.25 1005.06 1004.92 1004.82 1004.74 1004.68 1004.61 1004.53 1004.43 1004.33 1004.24 1004.19 1004.18 1004.26 1004.43 1004.72 1005.13 1005.64 1006.25 1006.92 1007.64 1008.38 1009.10 1009.78 1010.41 1010.97 1011.46 1011.89 1012.25 1012.56 1012.85 1013.11 1013.38
1006.68 1006.66 1006.58 1006.44 1006.24 1005.99 1005.69 1005.38 1005.08 1004.81 1004.59 1004.43 1004.31 1004.25 1004.20 1004.16 1004.11 1004.03 1003.92 1003.79 1003.67 1003.58 1003.54 1003.60 1003.78 1004.09 1004.53 1005.12 1005.81 1006.59 1007.42 1008.27 1009.11 1009.91 1010.64 1011.30 1011.87 1012.36 1012.78 1013.14 1013.45 1013.73 1013.99
1005.91 1005.91 1005.86 1005.75 1005.56 1005.31 1005.02 1004.71 1004.41 1004.15 1003.95 1003.82 1003.75 1003.73 1003.73 1003.73 1003.72 1003.66 1003.57 1003.45 1003.32 1003.21 1003.16 1003.20 1003.37 1003.68 1004.15 1004.75 1005.49 1006.31 1007.20 1008.12 1009.02 1009.88 1010.68 1011.40 1012.04 1012.59 1013.07 1013.48 1013.83 1014.15 1014.44
1005.18 1005.21 1005.19 1005.09 1004.92 1004.68 1004.39 1004.08 1003.79 1003.54 1003.37 1003.26 1003.24 1003.27 1003.33 1003.39 1003.44 1003.44 1003.39 1003.31 1003.21 1003.12 1003.08 1003.13 1003.29 1003.60 1004.06 1004.66 1005.38 1006.20 1007.09 1008.00 1008.90 1009.77 1010.59 1011.33 1012.01 1012.61 1013.14 1013.61 1014.03 1014.40 1014.73
1004.49 1004.54 1004.54 1004.46 1004.31 1004.08 1003.80 1003.50 1003.22 1002.99 1002.84 1002.77 1002.78 1002.86 1002.99 1003.13 1003.25 1003.33 1003.37 1003.36 1003.33 1003.30 1003.31 1003.39 1003.57 1003.88 1004.32 1004.88 1005.56 1006.32 1007.14 1007.99 1008.84 1009.66 1010.44 1011.18 1011.86 1012.49 1013.07 1013.60 1014.09 1014.52 1014.92
Thickness
5764 5763 5761 5759 5757 5756 5754 5753 5752 5750 5748 5747 5746 5746 5745 5744 5744 5745 5746 5747 5747 5747 5747 5747 5747 5747 5746 5746 5745 5744 5744 5743 5742 5741 5739 5737 5736 5734 5732 5731 5730 5729 5728
5763 5760 5757 5755 5753 5752 5750 5749 5748 5747 5745 5744 5743 5743 5743 5743 5743 5743 5744 5744 5744 5745 5745 5745 5745 5743 5743 5743 5743 5743 5743 5743 5742 5741 5740 5738 5736 5735 5733 5732 5730 5729 5728
5760 5756 5753 5750 5749 5748 5747 5745 5744 5743 5742 5741 5741 5741 5741 5741 5741 5742 5741 5741 5740 5740 5742 5742 5741 5740 5740 5740 5741 5741 5742 5742 5741 5741 5739 5738 5737 5735 5734 5732 5731 5730 5728
5755 5752 5749 5746 5745 5743 5742 5740 5739 5737 5737 5736 5736 5738 5739 5739 5739 5740 5739 5737 5737 5737 5738 5738 5738 5737 5737 5737 5738 5739 5739 5739 5740 5740 5739 5738 5736 5735 5734 5733 5732 5730 5729
5750 5747 5744 5742 5740 5738 5736 5735 5734 5732 5731 5731 5732 5734 5735 5735 5736 5737 5736 5735 5735 5735 5734 5734 5735 5734 5735 5735 5735 5736 5736 5737 5738 5738 5738 5737 5736 5735 5734 5733 5732 5730 5729
5744 5742 5739 5737 5736 5733 5731 5730 5728 5728 5728 5728 5729 5730 5730 5732 5734 5733 5733 5733 5732 5731 5731 5731 5731 5732 5732 5733 5733 5733 5734 5734 5735 5736 5736 5735 5735 5734 5733 5733 5732 5731 5729
5738 5735 5733 5732 5730 5727 5726 5725 5724 5723 5722 5723 5721 5721 5725 5729 5731 5732 5732 5730 5729 5728 5728 5728 5728 5729 5730 5731 5731 5731 5731 5732 5733 5734 5734 5734 5734 5734 5733 5732 5732 5731 5730
5732 5731 5728 5726 5725 5723 5722 5721 5719 5717 5716 5717 5714 5711 5710 5715 5722 5728 5727 5727 5726 5725 5725 5725 5725 5726 5726 5726 5727 5728 5729 5730 5731 5732 5732 5732 5733 5733 5732 5732 5731 5730 5730
5727 5725 5723 5722 5721 5719 5717 5716 5715 5713 5709 5710 5710 5707 5702 5700 5706 5715 5719 5721 5720 5720 5720 5721 5722 5722 5722 5722 5723 5725 5726 5727 5728 5729 5730 5730 5731 5731 5731 5731 5730 5730 5729
5720 5719 5718 5717 5716 5715 5713 5712 5711 5710 5707 5704 5704 5705 5704 5702 5699 5700 5707 5712 5715 5715 5715 5717 5718 5719 5719 5719 5720 5721 5722 5724 5725 5726 5727 5727 5728 5729 5729 5729 5729 5729 5728
5711 5711 5711 5711 5710 5709 5708 5707 5706 5705 5703 5701 5699 5699 5699 5698 5697 5694 5696 5700 5705 5708 5710 5711 5712 5714 5715 5716 5716 5718 5720 5721 5722 5723 5724 5725 5725 5726 5726 5727 5728 5727 5726
5701 5703 5704 5704 5703 5702 5702 5701 5700 5699 5698 5698 5696 5695 5693 5692 5691 5690 5691 5693 5695 5700 5705 5707 5708 5709 5711 5712 5713 5714 5716 5718 5719 5719 5720 5720 5722 5723 5724 5725 5725 5725 5724
5689 5692 5694 5694 5695 5695 5695 5695 5694 5693 5693 5692 5692 5692 5691 5691 5690 5689 5687 5689 5690 5694 5698 5701 5703 5705 5706 5707 5708 5710 5712 5713 5713 5714 5715 5716 5718 5719 5720 5722 5722 5722 5722
5677 5680 5681 5684 5686 5687 5687 5686 5686 5687 5687 5687 5688 5688 5688 5688 5688 5687 5685 5684 5685 5687 5690 5693 5697 5699 5701 5702 5703 5704 5706 5707 5708 5709 5710 5711 5713 5714 5715 5717 5718 5718 5718
5664 5666 5669 5671 5674 5676 5677 5677 5677 5679 5680 5681 5682 5683 5683 5684 5684 5684 5684 5682 5680 5681 5684 5687 5689 5693 5694 5695 5697 5698 5700 5701 5701 5703 5704 5705 5706 5707 5709 5711 5712 5713 5713
5648 5651 5654 5656 5659 5662 5665 5666 5668 5671 5671 5674 5676 5677 5678 5679 5679 5680 5680 5679 5679 5678 5679 5683 5684 5686 5688 5689 5690 5691 5692 5693 5694 5695 5696 5697 5698 5699 5701 5703 5705 5706 5707
5632 5635 5638 5640 5643 5647 5651 5654 5657 5660 5662 5665 5668 5670 5672 5674 5674 5675 5675 5675 5675 5675 5675 5678 5679 5680 5681 5681 5682 5683 5684 5684 5685 5686 5687 5688 5689 5690 5692 5694 5696 5697 5698
5616 5618 5620 5624 5627 5632 5636 5640 5643 5648 5652 5655 5659 5661 5664 5668 5669 5670 5670 5671 5672 5672 5672 5673 5674 5674 5674 5675 5675 5676 5676 5676 5676 5677 5678 5679 5680 5681 5683 5684 5686 5688 5688
5598 5600 5602 5605 5610 5614 5619 5624 5630 5635 5641 5646 5650 5653 5657 5660 5662 5663 5665 5666 5667 5669 5670 5669 5669 5669 5669 5669 5668 5668 5668 5667 5668 5667 5668 5669 5670 5671 5672 5674 5675 5676 5677
5579 5581 5584 5587 5592 5597 5602 5608 5614 5621 5628 5634 5640 5645 5650 5654 5656 5658 5660 5661 5663 5664 5665 5665 5665 5664 5663 5663 5663 5661 5659 5659 5658 5658 5658 5658 5658 5659 5661 5662 5664 5665 5665
5561 5563 5565 5569 5573 5579 5586 5592 5598 5606 5613 5620 5628 5635 5641 5647 5651 5653 5655 5656 5657 5658 5660 5661 5660 5659 5659 5658 5657 5655 5652 5650 5648 5649 5648 5647 5648 5648 5648 5650 5652 5653 5654
5547 5547 5549 5552 5556 5563 5570 5575 5582 5590 5598 5606 5614 5622 5630 5637 5642 5646 5650 5652 5653 5655 5656 5657 5656 5656 5655 5655 5653 5651 5647 5645 5641 5639 5640 5637 5638 5638 5638 5639 5641 5642 5643
5537 5537 5538 5540 5543 5547 5553 5559 5567 5574 5583 5592 5601 5609 5618 5627 5633 5637 5642 5645 5648 5651 5653 5654 5653 5653 5652 5652 5650 5645 5643 5641 5639 5635 5634 5629 5628 5628 5629 5629 5630 5632 5633
5530 5531 5532 5533 5534 5538 5542 5547 5553 5560 5569 5578 5587 5596 5605 5615 5622 5627 5632 5636 5640 5643 5647 5648 5650 5650 5650 5648 5647 5644 5640 5634 5630 5628 5629 5624 5621 5620 5620 5620 5621 5623 5624
5525 5525 5527 5528 5529 5531 5535 5538 5543 5547 5555 5565 5575 5584 5594 5604 5613 5619 5624 5628 5631 5635 5639 5642 5643 5644 5643 5642 5640 5636 5632 5629 5623 5620 5621 5619 5614 5611 5611 5611 5612 5613 5614
5520 5521 5522 5523 5525 5527 5530 5532 5535 5538 5545 5553 5563 5573 5584 5594 5602 5609 5616 5620 5624 5627 5631 5633 5634 5635 5635 5634 5633 5632 5630 5625 5620 5615 5615 5614 5609 5608 5603 5603 5603 5605 5606